Home > Weather > Arica > Past weeks

Flag for Chile Past Weather in Arica, Chile — Yesterday and Last 2 Weeks

Now
63 °F

Fog.


Feels Like: 63 °F
Forecast: 61 / 68 °F
Wind: 5 mph from West

Location: Arica Airport

Current Time: Jul 2, 2016 at 5:34:20 AM

Latest Report: Jul 2, 2016 at 5:00 AM


Visibility: 3 mi

Pressure: 30.01 "Hg

Humidity: 83%

Dew Point: 57 °F

Location of AricaLocation

Past Weather in Arica — Graph

°F

Arica Temperature Yesterday

Maximum temperature yesterday: 66 °F (at 12:00 PM)
Minimum temperature yesterday: 63 °F (at 2:00 AM)
Average temperature yesterday: 64 °F

High & Low Weather Summary for the Past Weeks

 TemperatureHumidityPressure
High70 °F (Jun 26, 11:00 AM)88% (Jun 29, 4:00 AM)30.27 "Hg (Jun 29, 4:00 AM)
Low50 °F (Jun 24, 9:00 AM)8% (Jun 24, 9:00 AM)29.83 "Hg (Jun 28, 6:00 PM)
Average64 °F72%30.00 "Hg
* Reported Jun 17 4:00 AM — Jul 2 4:00 AM, Arica, Weather by CustomWeather, © 2016

Note: Actual official high and low records may vary slightly from our data, if they occured in-between our weather recording intervals... More about our weather records

Advertising

Arica Weather History for the Previous 24 Hours

Scroll right to see more
 ConditionsComfort  
Time TempWeatherWind HumidityBarometerVisibility
4:00 AM
Sat, Jul 2
63 °FOvercast.No wind77%29.98 "HgN/A
3:00 AM63 °FOvercast.No wind83%30.01 "HgN/A
2:00 AM63 °FOvercast.2 mph83%30.01 "HgN/A
1:00 AM63 °FOvercast.No wind83%30.01 "HgN/A
12:00 AM63 °FOvercast.No wind83%30.01 "HgN/A
11:00 PM
Fri, Jul 1
63 °FOvercast.2 mph83%30.01 "HgN/A
10:00 PM63 °FOvercast.2 mph83%29.98 "HgN/A
9:00 PM63 °FOvercast.No wind83%29.98 "HgN/A
8:00 PM63 °FOvercast.3 mph83%29.98 "HgN/A
7:00 PM63 °FOvercast.5 mph83%29.95 "HgN/A
6:00 PM63 °FOvercast.6 mph83%29.95 "HgN/A
5:00 PM64 °FOvercast.6 mph78%29.92 "HgN/A
4:00 PM64 °FOvercast.9 mph78%29.92 "HgN/A
3:00 PM64 °FOvercast.8 mph78%29.95 "HgN/A
2:00 PM64 °FOvercast.6 mph78%29.95 "HgN/A
1:00 PM66 °FOvercast.8 mph73%29.98 "HgN/A
12:00 PM66 °FOvercast.6 mph73%29.98 "HgN/A
11:00 AM64 °FOvercast.No wind73%29.98 "HgN/A
10:00 AM64 °FOvercast.2 mph78%30.01 "HgN/A
9:00 AM63 °FOvercast.2 mph77%29.98 "HgN/A
8:00 AM63 °FOvercast.No wind83%29.98 "Hg5 mi
6:00 AM63 °FOvercast.2 mph83%29.92 "Hg5 mi
5:00 AM63 °FOvercast.No wind83%29.92 "Hg5 mi
Weather by CustomWeather, © 2016

See weather overviewHow to use our weather pages